星链-6313 (STARLINK-6313 )

导读

STARLINK-6313是美国SpaceX公司星链星座的成员卫星,于2023年5月14日发射升空,属于星链星座第二代组网卫星。星链计划是全球规模最大的低轨互联网卫星项目,目标是部署超4万颗卫星,为全球提供高速低时延卫星宽带服务。该卫星运行在近地轨道,承担全球偏远地区网络覆盖,同时可支持军事通信等应用,是星链星座持续扩容的重要组成部分。

基本信息
目录编号:
56519
目录名称:
STARLINK-6313
国际标识:
2023-065S
轨道中心:
EARTH
卫星名称:
星链-6313
卫星全名:
星链-6313 (STARLINK-6313 )
卫星状态:
在轨 (已飞行1127 天)
发射日期:
2023-05-14 UTC
国别 :
美国 (US)
星等 :
--
轨道信息
数据来源 国际轨道数据
星历时间: 2026-06-14T15:19:16+0800
13小时前
查看轨道信息
半长轴: 6861.076km
偏心率: 0.0001466
轨道倾角: 43.002°
近地点辐角 244.209°
升交点赤经 27.022°
平近点角 115.861°
近地点: 481.933km
远地点: 483.945km
周期: 94.264分钟
每日圈数: 15.27617
详细信息
固有亮度:
5
最大亮度:
2.5
卫星平台:
Starlink v1.5
覆盖范围:
全球
运营商:
太空探索技术公司
运营商所在国:
美国
制造商(研发单位):
太空探索技术公司
制造商所在国:
美国
使用方式:
暂无
卫星简介
星链(Starlink)计划是由太空探索技术公司(SpaceX)提出的一个巨型低轨卫星互联网星座项目,计划在2019年至2024年间在太空搭建由约1.2万颗卫星组成的“星链”网络,其中1584颗将部署在地球上空550千米处的近地轨道,并从2020年开始工作。该卫星仍在工作。
2D轨道图
3D轨道图
轨道高度分析图
轨道倾角分析图
轨道综合分析图
查看轨道综合分析图